User: anonymous   Login
Location: Iesi
(43.5167°N, 13.2333°E)
Time: 15:37:18
(UTC+00:00)
Language:

Meteor 1-18 Rocket - Orbit

View from above orbital plane
View from above orbital plane
View from above satellite
View from above satellite

Ground track
Ground track

The orbit data is extracted from the following two-line orbital elements,

1  7364U 74052B   20292.80241966 +.00000025 +00000-0 +79110-5 0  9999
2  7364 081.2347 047.0104 0048876 318.4327 041.3129 14.06031847372516
Epoch (UTC): 18 October 2020 19:15:29
Eccentricity: 0.0048876
inclination: 81.2347°
perigee height: 837 km
apogee height: 908 km
right ascension of ascending node: 47.0104°
argument of perigee: 318.4327°
revolutions per day: 14.06031847
mean anomaly at epoch: 41.3129°
orbit number at epoch: 37251

The dashed part of the orbit path shows where the satellite is in the earth's shadow,  

DLR